Date,TemperatureHighF,TemperatureAvgF,TemperatureLowF,DewpointHighF,DewpointAvgF,DewpointLowF,HumidityHigh,HumidityAvg,HumidityLow,PressureMaxIn,PressureMinIn,WindSpeedMaxMPH,WindSpeedAvgMPH,GustSpeedMaxMPH,PrecipitationSumIn
2013-1-1,37.7,34.3,23.8,31.3,25.1,14.3,81,69,58,30.00,29.82,16,1,17,0.06
2013-1-2,28.7,22.9,15.5,20.9,16.3,11.9,91,76,64,30.17,29.97,12,0,15,0.00
2013-1-3,28.6,19.7,10.3,19.8,14.6,5.6,93,81,63,30.20,30.05,10,0,12,0.00
2013-1-4,35.9,28.5,18.3,27.9,23.0,16.8,95,81,66,30.06,29.91,18,1,19,0.00
2013-1-5,41.2,31.9,23.9,28.8,24.9,21.9,93,76,58,30.28,29.96,15,0,16,0.00
2013-1-6,42.7,33.1,26.2,33.6,29.4,24.2,93,87,66,30.23,29.96,10,0,10,0.00
2013-1-7,41.4,32.3,22.4,33.1,27.0,20.7,94,82,56,30.41,30.04,11,0,11,0.00
2013-1-8,45.4,31.7,20.7,34.5,27.7,19.5,96,86,64,30.44,30.33,16,0,18,0.00
2013-1-9,44.4,34.9,24.1,39.1,32.0,23.3,97,90,71,30.40,30.13,14,1,16,0.00
2013-1-10,45.3,37.5,29.3,35.5,29.1,26.4,92,73,50,30.57,30.20,12,0,17,0.00
2013-1-11,38.0,34.0,28.1,37.3,31.8,26.2,100,92,80,30.57,30.14,3,0,3,0.50
2013-1-12,44.9,41.4,37.5,44.9,41.4,37.3,100,100,100,30.20,30.09,0,0,0,0.12
2013-1-13,45.5,42.4,39.4,45.5,42.4,39.4,100,100,100,30.19,30.02,0,0,0,0.00
2013-1-14,56.1,46.0,34.7,55.7,43.6,31.5,100,92,70,30.32,29.93,11,0,11,0.13
2013-1-15,36.9,34.4,31.8,32.9,31.6,29.3,96,89,80,30.36,30.23,6,0,8,0.13
2013-1-16,33.9,32.7,30.8,33.6,32.2,29.7,100,98,85,30.26,29.79,6,0,9,0.00
2013-1-17,41.9,35.9,30.0,34.2,30.8,23.3,100,82,64,30.11,29.89,12,1,13,0.06
2013-1-18,30.1,23.1,16.0,24.2,13.6,8.0,90,67,50,30.49,30.03,13,0,15,0.00
2013-1-19,44.7,34.0,17.6,33.6,27.5,14.7,92,77,58,30.40,29.91,15,1,15,0.01
2013-1-20,49.9,39.8,27.8,34.4,27.9,13.1,88,64,34,30.02,29.66,19,2,24,0.00
2013-1-21,29.4,26.0,19.5,23.8,17.8,11.4,92,72,53,30.10,29.81,11,0,14,0.00
2013-1-22,23.4,18.1,11.1,20.6,6.4,-2.4,92,60,46,30.17,29.80,17,1,20,0.00
2013-1-23,16.9,11.5,4.6,3.3,1.0,-1.9,88,63,49,30.22,30.13,17,0,18,0.00
2013-1-24,21.0,12.1,3.2,6.9,3.1,1.1,92,68,44,30.35,30.13,17,1,18,0.00
2013-1-25,23.9,16.2,6.4,17.2,8.3,3.0,92,72,46,30.39,30.05,5,0,8,0.00
2013-1-26,24.7,17.0,9.3,14.1,10.3,6.7,94,76,57,30.35,30.03,14,0,15,0.00
2013-1-27,31.5,18.4,7.2,16.2,10.9,5.1,94,75,40,30.51,30.34,12,0,15,0.00
2013-1-28,33.2,26.9,15.9,32.8,24.8,13.1,98,92,74,30.49,30.00,0,0,0,0.18
2013-1-29,37.8,35.5,33.3,37.3,35.2,32.9,100,99,97,30.18,29.99,0,0,0,0.16
2013-1-30,54.7,43.9,35.0,54.6,43.9,35.0,100,100,100,30.13,29.40,16,0,16,0.00
2013-1-31,58.2,44.6,28.7,58.2,36.0,16.0,100,74,46,29.72,29.03,33,3,33,0.01
2013-2-1,30.9,25.8,22.0,14.9,10.7,7.6,67,53,42,30.19,29.84,19,1,22,0.00
2013-2-2,29.0,23.4,17.4,20.8,14.3,8.6,92,69,43,30.29,30.06,10,0,19,0.00
2013-2-3,31.0,23.1,15.1,21.3,18.6,13.7,95,83,63,30.07,29.77,6,0,6,0.00
2013-2-4,29.0,24.3,18.9,21.7,15.2,11.4,92,69,50,29.97,29.78,20,1,20,0.00
2013-2-5,28.7,25.7,19.4,25.4,22.9,15.2,94,89,82,30.00,29.91,2,0,2,0.00
2013-2-6,37.4,30.6,23.5,28.0,22.9,10.9,97,75,52,30.36,29.92,19,0,20,0.00
2013-2-7,31.7,25.0,19.4,22.5,13.8,8.9,87,63,44,30.53,30.34,5,0,6,0.00
2013-2-8,31.5,29.3,25.1,30.9,27.5,22.6,98,93,81,30.36,29.58,20,0,21,0.00
2013-2-9,28.0,24.5,18.6,24.6,15.7,6.4,97,71,42,30.29,29.70,22,3,27,0.00
2013-2-10,39.2,23.9,15.6,19.8,9.2,1.0,89,56,24,30.46,30.29,11,0,13,0.00
2013-2-11,41.0,33.0,21.7,41.0,32.0,18.6,100,96,87,30.34,29.66,7,0,9,0.00
2013-2-12,43.1,39.1,35.8,39.9,31.4,27.3,100,74,60,29.97,29.69,20,1,21,0.00
2013-2-13,43.2,33.6,23.4,32.5,28.0,22.0,95,81,58,29.95,29.69,7,0,9,0.00
2013-2-14,42.7,33.4,25.4,32.2,29.0,24.7,98,85,59,30.01,29.71,8,0,17,0.00
2013-2-15,49.6,36.1,25.0,37.7,31.9,24.3,98,86,58,30.03,29.92,8,0,10,0.00
2013-2-16,40.8,33.2,28.2,35.0,27.1,19.3,96,79,61,29.97,29.71,10,0,13,0.00
2013-2-17,30.2,23.6,15.0,20.0,10.2,4.7,70,57,38,29.91,29.59,25,2,29,0.00
2013-2-18,32.0,22.5,15.0,18.7,11.2,5.6,83,62,42,30.22,29.91,21,1,23,0.00
2013-2-19,44.6,32.8,19.4,41.0,29.6,17.1,100,88,69,30.22,29.65,16,0,16,0.00
2013-2-20,37.4,29.5,23.4,31.2,19.6,13.6,84,66,52,29.94,29.67,21,2,24,0.00
2013-2-21,32.9,26.1,22.2,21.0,16.7,14.0,78,68,56,30.31,29.91,19,1,22,0.00
2013-2-22,37.8,30.0,22.2,30.6,24.6,17.4,91,81,63,30.42,30.27,11,0,14,0.00
2013-2-23,37.8,34.9,32.9,37.8,34.2,30.4,100,97,90,30.30,29.81,5,0,10,0.00
2013-2-24,43.2,36.8,32.2,38.6,34.7,29.0,100,92,78,29.95,29.73,12,1,14,0.00
2013-2-25,44.6,36.5,30.4,31.8,29.2,26.2,91,75,58,30.26,29.94,15,0,16,0.00
2013-2-26,41.2,33.8,26.8,34.2,30.5,25.9,98,88,66,30.33,29.97,8,0,8,0.00
2013-2-27,42.7,39.2,33.7,42.7,39.1,33.0,100,100,98,29.98,29.50,12,0,18,0.00
2013-2-28,47.2,39.4,33.4,42.3,36.6,33.4,100,90,71,29.63,29.53,7,0,8,0.00
2013-3-1,43.9,38.1,34.1,35.5,32.7,29.0,96,82,64,29.77,29.58,10,0,11,0.00
2013-3-2,38.7,34.8,30.5,29.5,27.8,25.7,88,76,67,29.77,29.68,12,1,14,0.00
2013-3-3,36.9,31.1,28.1,28.2,24.6,21.2,85,77,62,29.72,29.64,14,1,17,0.00
2013-3-4,40.7,32.5,27.3,26.8,23.3,20.2,79,69,54,29.87,29.71,20,2,26,0.00
2013-3-5,47.4,37.5,29.6,32.0,28.2,23.6,82,70,51,30.04,29.87,13,1,15,0.00
2013-3-6,41.9,37.7,33.3,38.5,33.2,29.4,93,84,75,30.02,29.90,19,1,21,0.00
2013-3-7,36.7,33.9,31.5,34.6,31.7,28.8,98,92,82,30.07,29.93,22,1,22,0.00
2013-3-8,39.7,34.0,29.7,34.7,31.3,28.2,100,90,66,30.19,29.98,12,0,13,0.00
2013-3-9,52.3,38.7,29.0,31.4,27.8,24.3,92,67,34,30.35,30.17,8,0,13,0.00
2013-3-10,49.7,35.1,23.5,37.6,30.9,22.6,97,86,60,30.42,30.32,8,0,8,0.00
2013-3-11,53.1,42.9,35.5,45.3,40.0,33.7,97,90,71,30.35,30.13,7,0,8,0.00
2013-3-12,53.7,48.1,41.4,53.7,47.6,37.9,100,98,90,30.13,29.69,11,0,14,0.36
2013-3-13,48.9,40.3,31.6,39.6,32.5,25.8,98,76,43,29.89,29.78,13,0,16,0.00
2013-3-14,35.5,31.7,26.0,31.1,18.8,9.8,91,59,37,29.93,29.83,21,2,23,0.00
2013-3-15,41.7,34.3,25.1,32.6,22.5,13.4,77,62,45,29.95,29.71,18,1,18,0.00
2013-3-16,37.9,33.1,29.9,30.4,26.8,20.9,92,78,55,29.92,29.76,7,0,10,0.00
2013-3-17,37.4,30.9,26.5,29.6,21.6,13.8,94,70,39,30.34,29.91,11,0,12,0.00
2013-3-18,33.9,28.6,21.8,30.2,19.2,11.7,98,69,46,30.44,30.02,12,0,12,0.00
2013-3-19,38.0,34.0,30.7,37.2,33.1,23.0,100,97,70,30.07,29.67,10,0,12,0.00
2013-3-20,42.2,33.9,24.5,29.0,24.2,20.0,91,68,44,29.87,29.78,17,1,26,0.00
2013-3-21,36.9,32.9,30.4,29.1,23.6,17.1,90,69,45,29.84,29.62,10,0,12,0.00
2013-3-22,40.4,32.6,25.5,26.5,22.2,16.1,82,66,50,29.86,29.70,19,1,19,0.00
2013-3-23,44.1,36.7,31.5,27.2,24.4,21.6,74,61,46,29.92,29.78,21,2,28,0.00
2013-3-24,46.4,36.4,28.7,29.7,26.2,21.3,82,67,48,29.94,29.71,14,0,14,0.00
2013-3-25,43.8,38.5,32.5,33.2,30.5,28.1,91,73,61,29.72,29.45,12,0,12,0.00
2013-3-26,50.6,39.7,29.6,34.0,30.2,26.9,91,70,47,29.85,29.58,13,0,15,0.00
2013-3-27,52.0,40.0,28.1,31.8,28.4,25.0,93,66,36,29.95,29.84,12,0,13,0.00
2013-3-28,49.7,41.9,34.4,36.9,33.0,29.6,83,71,57,30.10,29.93,12,0,13,0.02
2013-3-29,54.7,44.8,36.0,34.3,31.9,28.6,81,62,40,30.13,30.04,15,0,15,0.00
2013-3-30,57.2,42.5,29.6,34.3,28.0,20.1,93,62,26,30.16,30.06,11,0,13,0.00
2013-3-31,54.9,42.1,28.3,43.1,33.9,25.8,98,75,44,30.15,29.66,13,0,17,0.22
2013-4-1,62.9,46.3,35.5,47.7,38.9,18.4,100,77,44,29.89,29.58,20,1,23,0.08
2013-4-2,42.0,35.4,30.1,21.5,17.9,12.7,70,50,33,30.06,29.88,20,2,22,0.00
2013-4-3,43.1,33.8,30.5,19.9,17.8,15.0,61,52,34,30.14,30.05,20,1,21,0.00
2013-4-14,50.5,43.7,38.7,33.3,31.8,30.4,77,64,47,30.24,30.13,8,0,8,0.00
2013-4-15,58.2,45.7,33.4,38.9,34.5,30.9,92,67,44,30.41,30.24,8,0,9,0.00
2013-4-16,63.2,51.1,36.9,54.0,46.5,34.5,95,85,66,30.41,30.14,14,0,15,0.03
2013-4-17,68.5,56.9,44.9,54.0,42.1,31.6,98,63,27,30.32,30.13,13,0,14,0.00
2013-4-18,60.2,50.8,39.6,49.3,43.0,38.0,95,76,50,30.39,30.14,10,0,12,0.00
2013-4-19,71.7,60.5,51.9,63.5,58.3,49.2,100,93,74,30.15,29.67,14,1,15,0.00
2013-4-20,61.6,52.0,44.9,61.3,39.9,26.8,99,68,34,30.30,29.66,21,1,21,0.23
2013-4-21,53.2,42.6,31.9,32.7,26.9,21.2,80,56,29,30.66,30.30,14,0,14,0.00
2013-4-22,54.4,43.2,31.1,38.4,33.8,25.9,96,72,42,30.70,30.53,11,0,14,0.00
2013-4-23,48.7,42.6,36.9,42.3,38.6,33.1,94,86,78,30.53,30.11,10,0,16,0.00
2013-4-24,70.3,52.9,40.4,52.2,45.8,38.8,94,79,50,30.11,29.86,10,0,12,0.00
2013-4-25,63.9,53.1,40.9,51.6,34.9,16.4,97,56,19,30.28,29.88,13,0,15,0.01
2013-4-26,65.2,50.1,33.7,38.4,34.3,26.2,95,60,24,30.44,30.28,8,0,10,0.00
2013-4-27,69.5,53.4,39.5,38.6,31.6,16.2,80,50,15,30.45,30.30,9,0,11,0.00
2013-4-28,68.3,52.4,37.1,49.1,40.2,31.7,97,67,31,30.35,30.24,9,0,11,0.00
2013-4-29,57.5,52.5,47.2,50.8,45.2,38.5,91,76,63,30.28,30.23,9,0,9,0.01
2013-4-30,67.2,55.0,42.1,46.8,39.0,21.9,91,60,23,30.37,30.25,14,0,15,0.00
2013-5-1,68.3,52.3,35.2,47.2,39.9,28.7,94,67,27,30.52,30.36,12,0,12,0.00
2013-5-2,75.2,56.8,38.6,50.0,42.3,35.6,98,65,26,30.50,30.34,9,0,9,0.00
2013-5-3,66.0,55.1,45.3,47.9,43.3,37.5,91,66,41,30.49,30.37,9,0,11,0.00
2013-5-4,69.5,53.1,41.1,49.8,44.7,40.2,98,76,43,30.40,30.26,10,0,10,0.00
2013-5-5,62.1,49.0,36.0,47.7,42.2,35.1,98,79,56,30.33,30.24,9,0,9,0.00
2013-5-6,69.7,53.9,38.0,54.6,47.7,36.7,98,81,55,30.30,30.17,10,0,12,0.00
2013-5-7,72.8,58.6,42.6,60.1,52.6,41.9,100,82,58,30.20,30.12,9,0,10,0.00
2013-5-8,62.5,59.5,55.8,62.5,59.2,55.4,100,99,93,30.16,30.02,6,0,9,0.66
2013-5-9,61.9,57.3,53.4,61.8,57.3,53.3,100,100,100,30.06,29.90,0,0,0,0.11
2013-5-10,79.0,62.9,50.1,63.8,56.4,50.1,100,82,43,30.02,29.92,9,0,9,0.00
2013-5-11,63.7,61.0,57.3,63.7,60.7,55.6,100,99,90,29.93,29.71,9,0,15,0.35
2013-5-12,69.0,59.2,49.7,59.9,48.1,24.9,100,72,24,29.92,29.65,14,1,17,0.08
2013-5-13,55.8,46.9,35.8,37.8,33.7,26.8,94,62,37,30.11,29.92,15,1,16,0.00
2013-5-14,58.9,46.4,34.9,37.7,34.2,24.8,96,67,28,30.13,30.03,12,0,13,0.00
2013-5-15,63.9,48.7,35.0,55.8,45.4,34.1,98,89,71,30.09,29.69,14,0,14,0.01
2013-5-16,81.8,62.8,48.3,58.7,50.9,38.0,100,72,25,29.85,29.72,11,0,12,0.00
2013-5-17,71.7,58.5,48.1,51.5,46.0,38.9,94,66,34,30.24,29.85,11,0,12,0.00
2013-5-18,70.1,55.2,43.5,54.0,49.1,42.3,98,82,49,30.34,30.23,10,0,11,0.00
2013-5-19,57.2,55.8,53.6,57.2,55.3,52.2,100,98,93,30.37,30.21,5,0,6,0.34
2013-5-20,79.0,65.0,56.3,69.7,62.7,56.3,100,93,67,30.21,29.99,10,0,10,0.00
2013-5-21,86.7,70.8,57.9,73.0,66.1,57.8,100,87,60,30.01,29.86,10,0,10,0.00
2013-5-22,76.3,65.2,56.6,70.3,63.5,56.6,100,95,78,29.97,29.88,8,0,9,0.00
2013-5-23,73.3,65.8,61.5,71.3,65.5,61.3,100,99,92,29.93,29.79,9,0,13,0.78
2013-5-24,64.4,56.0,44.1,64.4,55.5,43.7,100,98,88,29.93,29.67,18,0,19,0.48
2013-5-25,48.4,44.8,42.7,47.8,44.1,42.5,100,97,92,29.96,29.85,16,0,19,0.93
2013-5-26,62.7,51.2,42.4,47.0,42.8,39.5,95,75,47,30.21,29.90,18,1,21,0.00
2013-5-27,73.5,56.9,40.3,52.6,42.0,31.4,97,64,22,30.26,30.14,11,0,13,0.00
2013-5-28,66.0,54.5,44.9,57.3,51.9,44.4,100,92,55,30.26,30.16,5,0,6,0.33
2013-5-29,77.3,64.7,57.0,73.4,63.7,57.0,100,97,81,30.18,30.03,8,0,8,0.02
2013-5-30,89.5,73.7,60.1,72.7,66.6,60.1,100,81,45,30.15,30.08,9,0,9,0.00
2013-5-31,91.8,74.3,63.0,74.0,67.0,54.9,100,81,31,30.16,30.02,8,0,10,0.00
2013-6-1,87.5,74.1,62.1,73.5,67.7,62.1,100,83,56,30.06,29.93,11,0,11,0.00
2013-6-2,85.2,73.6,65.6,73.2,69.1,65.6,100,87,61,29.95,29.79,9,0,10,0.06
2013-6-3,77.8,69.2,63.7,72.2,66.9,54.9,100,93,67,29.91,29.82,15,0,20,1.44
2013-6-4,74.3,61.4,51.1,55.0,48.1,38.1,94,64,32,30.14,29.91,10,0,13,0.00
2013-6-5,74.0,59.5,49.1,55.4,50.7,46.6,95,75,42,30.25,30.13,9,0,9,0.00
2013-6-6,68.3,59.5,48.5,61.2,55.9,47.4,100,89,62,30.20,30.07,7,0,9,0.22
2013-6-7,60.3,58.8,56.4,60.3,58.8,56.4,100,100,100,30.08,29.69,5,0,7,3.13
2013-6-8,74.8,63.6,54.3,66.8,60.0,54.3,100,89,68,30.09,29.60,10,0,11,0.41
2013-6-9,79.3,65.4,53.6,63.7,58.7,53.6,100,82,47,30.22,30.08,10,0,12,0.00
2013-6-10,70.5,62.0,57.9,67.9,61.7,57.7,100,99,90,30.22,29.90,16,0,16,1.40
2013-6-11,78.3,67.3,59.6,71.4,64.2,57.4,100,91,66,29.91,29.61,12,0,19,0.63
2013-6-12,72.5,65.7,55.5,59.1,55.9,53.2,96,72,54,29.89,29.69,15,1,18,0.00
2013-6-13,59.4,56.5,52.0,59.4,56.4,51.8,100,100,96,29.87,29.55,9,0,9,1.15
2013-6-14,70.5,58.2,51.4,62.8,56.5,51.3,100,95,69,29.90,29.55,9,0,12,0.60
2013-6-15,78.0,65.7,56.1,60.3,56.2,48.7,100,75,38,30.03,29.89,10,0,12,0.00
2013-6-16,76.6,65.0,52.1,67.8,60.2,52.1,100,86,60,30.02,29.79,8,0,10,0.00
2013-6-17,81.5,69.3,59.2,74.5,64.9,59.2,100,87,54,29.95,29.86,11,0,12,0.09
2013-6-18,80.5,66.8,59.1,71.5,65.2,59.1,100,95,69,29.95,29.85,8,0,8,0.26
2013-6-19,74.7,63.1,54.7,62.1,55.6,42.3,100,80,35,30.21,29.92,8,0,8,0.00
2013-6-20,78.8,63.4,50.6,63.2,56.8,47.2,100,82,45,30.31,30.13,7,0,8,0.00
2013-6-21,80.8,66.9,53.2,67.8,59.4,52.8,100,79,53,30.33,30.27,9,0,10,0.00
2013-6-22,81.7,67.4,54.8,67.9,60.0,54.2,100,79,52,30.30,30.18,9,0,9,0.00
2013-6-23,86.3,72.5,59.0,72.8,66.4,58.0,100,83,56,30.23,30.10,11,0,11,0.00
2013-6-24,90.8,76.7,66.8,76.3,70.3,63.7,100,83,53,30.11,29.96,12,0,17,0.13
2013-6-25,87.7,75.5,64.6,75.9,69.6,64.6,100,84,56,30.04,29.82,12,0,13,0.01
2013-6-26,80.5,74.9,70.0,72.8,70.2,68.0,100,86,71,29.88,29.79,9,0,10,0.04
2013-6-27,81.3,72.4,66.4,75.6,70.6,66.4,100,95,75,29.86,29.60,9,0,9,0.45
2013-6-28,83.2,74.5,70.6,75.4,72.1,69.7,100,93,69,29.61,29.49,8,0,11,0.01
2013-6-29,80.7,72.4,65.0,73.0,69.3,65.0,100,91,67,29.74,29.51,7,0,9,0.00
2013-6-30,79.8,71.9,66.8,76.5,71.4,66.8,100,98,88,29.97,29.74,10,0,11,0.01
2013-7-1,74.5,72.4,71.4,74.4,72.4,71.4,100,100,100,30.11,29.94,10,0,10,1.76
2013-7-2,80.3,74.2,71.5,78.4,73.5,71.5,100,98,87,30.23,30.10,6,0,8,0.01
2013-7-3,82.8,74.9,69.7,76.7,73.1,69.7,100,94,76,30.29,30.21,7,0,11,0.01
2013-7-4,86.8,78.4,72.3,76.7,74.4,71.3,100,88,62,30.29,30.19,9,0,10,0.00
2013-7-5,90.0,78.7,70.9,77.1,73.7,69.9,100,86,54,30.26,30.12,11,0,11,0.00
2013-7-6,89.8,79.3,72.0,77.0,74.0,71.4,100,85,58,30.18,30.06,9,0,11,0.00
2013-7-7,90.8,79.8,72.2,78.2,75.3,69.8,100,87,60,30.10,29.95,7,0,9,0.00
2013-7-8,87.7,77.7,70.9,74.1,70.3,67.5,98,79,55,30.07,29.99,9,0,10,0.07
2013-7-9,83.8,74.2,66.3,76.2,71.8,66.3,100,93,69,30.11,30.03,5,0,6,0.00
2013-7-10,82.6,75.7,70.3,80.5,74.8,70.3,100,97,83,30.06,29.83,6,0,6,0.37
2013-7-11,81.0,73.8,65.8,75.6,72.2,65.1,100,95,77,29.97,29.83,2,0,2,0.18
2013-7-12,75.8,69.9,64.2,72.4,68.0,64.2,100,94,83,30.18,29.95,5,0,6,0.22
2013-7-13,77.2,70.4,64.0,76.2,70.3,63.9,100,100,96,30.33,30.16,6,0,6,0.04
2013-7-14,88.8,78.7,72.6,78.0,74.5,71.4,100,88,60,30.37,30.26,9,0,10,0.02
2013-7-15,90.2,80.0,72.7,77.3,74.2,71.6,100,84,58,30.28,30.17,8,0,10,0.00
2013-7-16,90.5,78.5,71.0,73.7,70.6,65.4,99,79,45,30.24,30.17,9,0,9,0.00
2013-7-17,91.4,78.5,69.2,77.5,72.6,66.6,100,84,47,30.24,30.09,5,0,5,0.00
2013-7-18,93.3,81.2,72.3,77.7,74.7,70.3,98,82,51,30.10,29.99,9,0,10,0.00
2013-7-19,93.3,82.4,73.5,78.4,75.6,73.5,100,82,55,30.01,29.81,10,0,11,0.00
2013-7-20,90.3,81.0,73.7,77.8,74.3,70.7,93,81,58,29.88,29.74,13,0,13,0.00
2013-7-21,83.2,74.4,67.4,71.8,68.1,64.0,96,82,56,30.01,29.87,6,0,6,0.00
2013-7-22,80.2,73.1,67.3,75.8,71.9,65.5,100,96,85,30.01,29.85,5,0,5,0.69
2013-7-23,85.0,75.6,56.2,77.9,73.8,30.9,100,95,20,29.86,29.57,9,0,11,2.01
2013-7-24,79.0,73.9,64.7,71.6,65.3,0.0,82,75,67,30.18,29.48,9,0,15,0.01
2013-7-25,64.7,62.3,60.4,60.6,57.5,53.8,96,85,73,30.10,29.96,6,0,9,0.05
2013-7-26,77.7,66.9,60.4,67.9,63.6,59.4,100,90,66,30.08,30.01,6,0,8,0.04
2013-7-27,80.2,68.5,58.6,68.9,64.0,58.6,100,87,60,30.09,30.01,7,0,8,0.00
2013-7-28,75.3,68.4,61.2,71.7,67.1,60.9,100,96,77,30.04,29.97,6,0,6,0.10
2013-7-29,82.8,72.3,62.4,73.6,67.8,60.6,100,87,52,30.12,29.98,8,0,10,0.04
2013-7-30,78.9,67.6,59.4,65.6,60.5,57.0,95,79,54,30.19,30.12,10,0,10,0.00
2013-7-31,79.2,67.1,56.9,67.6,62.0,56.9,100,85,53,30.19,30.08,8,0,8,0.00
2013-8-1,73.2,65.9,60.4,70.7,65.5,60.4,100,98,86,30.09,29.86,6,0,6,0.82
2013-8-2,80.8,70.7,64.4,69.1,66.0,61.8,100,87,54,29.94,29.81,10,0,12,0.11
2013-8-3,76.0,67.3,63.3,70.7,65.8,61.5,100,95,77,29.94,29.86,7,0,8,0.13
2013-8-4,78.0,65.3,57.7,64.0,60.7,57.1,100,87,51,30.00,29.87,11,0,11,0.09
2013-8-5,75.0,62.9,54.2,59.5,55.1,48.2,100,79,42,30.08,29.98,10,0,13,0.00
2013-8-6,76.3,63.7,52.7,64.6,58.8,52.7,100,86,59,30.17,30.07,7,0,8,0.00
2013-8-7,74.8,66.1,56.6,67.6,63.0,56.3,100,90,71,30.21,30.11,9,0,10,0.00
2013-8-8,77.3,71.6,68.4,75.4,71.2,67.5,100,99,93,30.12,30.05,5,0,6,0.27
2013-8-9,80.8,73.9,70.4,79.1,73.7,70.4,100,99,93,30.07,29.82,9,0,11,0.44
2013-8-10,81.0,71.3,60.1,71.8,65.3,58.9,100,83,51,30.09,29.87,11,0,12,0.00
2013-8-11,78.0,65.1,53.6,65.7,59.4,53.2,100,84,53,30.16,30.06,6,0,7,0.00
2013-8-12,80.2,68.9,62.7,68.8,64.8,59.9,100,88,55,30.08,29.96,6,0,6,0.00
2013-8-13,73.8,67.9,62.4,72.8,67.6,62.2,100,99,93,29.98,29.73,3,0,3,0.20
2013-8-14,73.5,64.4,54.4,67.2,56.5,51.1,100,77,54,30.07,29.76,15,0,22,0.00
2013-8-15,75.0,61.2,49.7,59.4,53.8,48.3,100,80,44,30.18,30.07,9,0,11,0.00
2013-8-16,78.3,62.8,51.9,63.8,57.4,51.8,100,85,48,30.25,30.15,7,0,8,0.00
2013-8-17,79.9,64.8,54.0,66.1,60.6,53.9,100,88,56,30.32,30.24,6,0,6,0.00
2013-8-18,74.6,64.7,58.1,67.9,62.9,58.1,100,94,72,30.31,30.16,2,0,2,0.01
2013-8-19,76.2,67.2,57.9,68.5,63.9,57.9,100,90,66,30.17,30.05,4,0,4,0.01
2013-8-20,83.5,70.6,61.2,68.8,64.5,57.7,100,84,45,30.17,30.07,10,0,10,0.00
2013-8-21,85.7,71.0,60.8,70.7,65.4,60.8,100,85,49,30.22,30.08,7,0,8,0.00
2013-8-22,74.8,69.8,64.4,74.7,69.6,64.3,100,100,96,30.11,29.89,4,0,5,0.82
2013-8-23,78.4,69.1,59.4,69.8,63.7,57.4,100,84,52,30.15,29.89,7,0,10,0.00
2013-8-24,78.5,64.1,56.1,62.6,57.5,52.9,98,81,49,30.39,30.15,5,0,6,0.00
2013-8-25,81.0,64.1,51.4,65.5,57.4,51.4,100,82,40,30.43,30.26,8,0,8,0.00
2013-8-26,76.0,67.6,60.3,70.4,65.3,59.3,100,92,68,30.27,29.94,9,0,11,0.12
2013-8-27,82.2,72.2,68.0,73.1,69.8,67.9,100,93,67,29.95,29.83,8,0,10,0.61
2013-8-28,84.2,70.5,63.3,74.5,69.1,63.3,100,96,65,29.94,29.88,9,0,10,0.37
2013-8-29,75.8,69.7,66.7,72.7,68.8,65.5,100,97,88,30.08,29.93,3,0,4,0.04
2013-8-30,82.5,71.1,65.7,72.4,68.3,65.1,100,92,62,30.07,29.88,6,0,6,0.00
2013-8-31,81.0,73.9,68.5,76.4,72.3,68.5,100,95,79,29.90,29.82,8,0,8,0.00
2013-9-1,91.9,74.3,11.8,77.3,72.1,-25.7,100,96,24,30.01,29.48,12,0,12,0.08
2013-9-2,79.5,74.4,72.4,78.7,74.2,72.3,100,99,92,29.86,29.78,0,0,0,0.01
2013-9-3,77.2,69.6,59.8,70.5,64.4,58.3,95,84,64,29.91,29.79,12,0,13,0.17
2013-9-4,79.4,65.3,56.4,65.8,59.5,56.3,100,84,51,30.02,29.89,10,0,11,0.00
2013-9-5,81.0,62.7,49.6,64.8,55.9,-32.0,100,81,4,30.18,29.55,11,0,50,7.41
2013-9-6,69.5,55.7,47.4,54.6,48.9,44.6,97,80,43,30.28,30.15,5,0,9,0.00
2013-9-7,76.2,59.7,46.2,62.6,53.7,45.6,100,83,47,30.16,29.92,6,0,7,0.00
2013-9-8,77.8,65.2,56.7,65.5,58.3,47.7,100,80,46,30.12,29.83,10,0,12,0.00
2013-9-9,70.3,56.7,44.8,57.4,50.8,44.1,99,82,54,30.28,30.12,5,0,7,0.00
2013-9-10,80.5,66.8,55.8,75.1,66.0,55.0,100,98,79,30.20,30.09,6,0,11,0.06
2013-9-11,90.6,76.2,66.6,79.9,73.0,66.6,100,91,62,30.15,30.02,8,0,8,0.00
2013-9-12,82.9,73.1,67.5,76.6,71.2,67.5,100,94,72,30.03,29.71,7,0,14,2.14
2013-9-13,74.8,66.2,56.6,69.2,63.5,51.2,100,91,68,29.85,29.64,8,0,9,0.11
2013-9-14,66.0,56.8,49.5,55.0,50.8,47.3,95,81,61,30.14,29.84,11,0,13,0.00
2013-9-15,68.7,54.9,45.3,57.2,50.5,45.1,100,87,48,30.23,30.11,7,0,7,0.00
2013-9-16,68.6,58.6,52.4,59.4,55.0,49.1,100,89,61,30.27,30.05,7,0,9,0.01
2013-9-17,65.0,51.4,42.7,50.9,44.8,40.0,97,79,50,30.46,30.26,7,0,8,0.00
2013-9-18,71.0,52.2,39.5,56.3,46.9,39.5,100,85,48,30.38,30.21,4,0,4,0.00
2013-9-19,76.0,56.8,46.3,59.9,51.7,46.3,100,86,40,30.23,30.09,7,0,7,0.00
2013-9-20,76.6,58.8,46.3,64.6,55.1,46.3,100,89,53,30.13,30.03,7,0,7,0.00
2013-9-21,55.8,53.5,52.2,55.8,53.4,51.9,100,99,98,30.06,30.02,0,0,0,0.00
2013-9-22,55.6,53.1,50.6,51.2,47.8,45.0,85,82,80,29.93,29.86,3,0,5,1.37
2013-9-23,63.7,51.6,44.6,50.8,44.8,0.0,97,79,55,30.07,29.92,10,0,38,0.00
2013-9-24,69.5,51.8,38.5,55.7,46.1,37.8,98,83,43,30.07,29.89,9,0,13,0.00
2013-9-25,69.8,54.8,45.0,58.6,50.5,44.9,100,87,54,29.98,29.90,5,0,8,0.00
2013-9-26,68.1,57.5,48.8,59.0,55.3,48.6,100,93,65,30.14,29.97,0,0,5,0.00
2013-9-27,62.4,54.0,46.9,58.6,52.7,46.9,100,96,83,30.31,30.13,3,0,6,0.00
2013-9-28,71.7,56.8,48.2,61.4,54.2,48.2,100,92,65,30.36,30.28,5,0,5,0.00
2013-9-29,68.5,54.7,46.8,61.5,52.7,46.8,100,94,69,30.28,30.12,0,0,0,0.00
2013-9-30,70.7,54.6,45.1,60.4,51.8,45.1,100,91,65,30.13,30.00,0,0,0,0.00
2013-10-1,76.9,60.1,49.4,63.3,56.1,49.4,100,89,52,30.03,29.92,5,0,7,0.00
2013-10-2,79.9,63.6,52.5,66.7,59.2,52.4,100,87,59,30.04,29.93,9,0,12,0.00
2013-10-3,75.4,60.6,49.1,62.9,56.4,48.9,100,88,51,30.16,30.03,5,0,6,0.00
2013-10-4,79.7,64.2,55.7,72.9,63.2,55.7,100,97,72,30.11,30.00,6,0,7,0.07
2013-10-5,74.8,65.1,61.0,68.2,63.6,61.0,100,95,77,30.13,30.06,4,0,4,0.00
2013-10-6,64.8,63.0,61.6,64.8,63.0,61.6,100,100,100,30.16,30.08,4,0,7,0.05
2013-10-7,71.8,65.9,57.2,71.4,65.8,56.7,100,100,97,30.09,29.80,13,0,18,0.44
2013-10-8,65.3,53.9,47.2,56.7,49.0,43.4,100,85,51,30.37,29.98,9,0,12,0.00
2013-10-9,62.6,51.1,43.0,53.6,48.5,42.9,100,91,67,30.45,30.33,7,0,10,0.00
2013-10-10,62.9,54.4,47.7,59.5,52.8,47.5,99,94,88,30.35,30.14,6,0,7,0.00
2013-10-11,67.5,60.4,55.1,63.0,58.4,53.5,97,93,85,30.14,30.07,6,0,8,0.00
2013-10-12,72.3,60.5,54.3,61.0,54.6,49.0,94,81,60,30.35,30.13,8,0,11,0.00
2013-10-13,65.1,54.8,48.2,56.2,51.6,48.0,100,90,68,30.43,30.33,7,0,8,0.00
2013-10-14,65.0,51.5,41.1,54.8,48.8,41.1,100,91,66,30.41,30.28,6,0,6,0.00
2013-10-15,70.1,53.4,44.9,58.5,48.7,44.6,100,87,46,30.30,30.15,7,0,8,0.00
2013-10-16,63.4,55.2,45.8,58.5,53.4,44.8,100,94,76,30.16,29.94,0,0,3,0.00
2013-10-17,74.5,63.4,57.9,63.9,61.0,57.8,100,93,65,29.95,29.71,8,0,8,0.05
2013-10-18,66.2,58.4,44.8,63.2,51.3,43.3,100,79,49,30.00,29.67,16,1,16,0.00
2013-10-19,62.3,50.6,40.6,53.9,47.1,40.5,100,89,62,30.01,29.76,6,0,7,0.03
2013-10-20,60.9,51.7,39.7,55.0,44.2,38.6,99,78,47,30.08,29.75,14,0,15,0.01
2013-10-21,66.0,49.5,38.3,49.0,42.4,38.1,100,80,41,30.17,30.00,7,0,11,0.00
2013-10-22,64.9,49.6,40.1,56.5,46.5,40.1,100,90,59,30.01,29.75,8,0,9,0.00
2013-10-23,51.4,43.8,33.9,44.3,38.9,33.9,100,84,58,29.84,29.62,8,0,9,0.00
2013-10-24,53.2,43.1,34.7,39.2,34.7,30.9,92,74,46,29.99,29.73,13,0,16,0.00
2013-10-25,49.9,40.7,32.1,36.5,33.8,30.8,95,78,54,30.23,29.98,13,0,15,0.00
2013-10-26,54.2,40.2,28.4,40.7,33.1,28.0,100,79,46,30.22,29.91,12,0,18,0.00
2013-10-27,56.7,45.0,33.7,42.0,37.1,31.9,97,76,46,30.13,29.85,13,0,15,0.01
2013-10-28,59.9,43.5,30.0,40.5,35.5,29.5,99,77,43,30.35,30.12,13,0,13,0.00
2013-10-29,50.2,41.8,33.2,36.9,33.8,30.7,94,74,54,30.45,30.34,6,0,6,0.00
2013-10-30,56.7,44.8,34.2,50.8,41.7,32.4,98,89,77,30.37,30.21,3,0,4,0.00
2013-10-31,62.5,51.9,37.9,60.5,51.4,37.9,100,99,93,30.26,29.83,6,0,10,0.08
2013-11-1,66.9,60.3,48.8,63.8,58.6,48.7,100,94,66,29.84,29.55,12,0,19,0.20
2013-11-2,65.8,51.5,43.1,54.5,47.5,42.2,100,88,53,29.79,29.62,10,0,10,0.00
2013-11-3,46.6,40.4,31.9,43.8,34.4,24.0,100,80,64,30.46,29.79,13,0,15,0.00
2013-11-4,44.8,34.2,29.4,27.1,23.5,17.9,88,66,37,30.69,30.46,7,0,9,0.00
2013-11-5,52.1,40.0,28.9,41.3,35.2,26.7,93,83,64,30.69,30.52,8,0,8,0.00
2013-11-6,59.7,48.7,37.7,55.5,44.8,36.9,100,88,65,30.52,30.08,8,0,11,0.00
2013-11-7,62.2,53.5,36.5,59.4,51.3,32.3,100,92,69,30.09,29.74,14,0,15,0.20
2013-11-8,47.4,40.0,31.5,35.0,31.8,29.3,96,73,53,30.19,29.91,18,1,19,0.00
2013-11-9,46.5,39.5,29.3,38.2,32.4,27.5,94,76,55,30.28,30.01,13,0,14,0.00
2013-11-10,58.7,46.7,41.0,42.1,38.1,32.0,90,73,43,30.01,29.79,17,1,24,0.03
2013-11-11,51.1,45.8,34.3,37.5,33.3,30.5,87,62,47,30.20,29.96,13,0,21,0.00
2013-11-12,50.1,35.4,26.6,40.5,29.7,21.6,96,81,58,30.27,29.93,0,0,0,0.11
2013-11-13,36.1,27.4,20.6,23.0,20.7,17.4,92,77,48,30.35,30.26,0,0,0,0.00
2013-11-14,50.7,36.3,23.7,27.9,24.2,18.5,93,65,29,30.26,30.13,0,0,0,0.00
2013-11-15,56.9,38.2,27.4,34.1,28.7,23.8,94,72,34,30.26,30.17,0,0,0,0.00
2013-11-16,59.9,44.7,30.1,44.9,38.8,28.6,97,82,48,30.35,30.25,0,0,0,0.01
2013-11-17,59.1,52.0,38.4,59.0,51.9,37.5,100,100,97,30.31,29.83,0,0,0,0.04
2013-11-18,62.7,56.7,48.2,60.5,46.4,30.1,100,71,42,29.83,29.61,0,0,0,0.24
2013-11-19,48.2,41.1,32.0,33.6,28.9,24.2,74,62,51,30.36,29.76,0,0,0,0.00
2013-11-20,43.3,32.0,23.9,24.3,21.3,14.1,91,67,32,30.65,30.35,0,0,0,0.00
2013-11-21,47.7,35.3,21.5,38.7,29.9,19.8,93,82,60,30.66,30.42,0,0,0,0.00
2013-11-22,51.9,46.5,41.6,51.2,45.7,38.7,100,97,89,30.42,29.90,0,0,0,0.21
2013-11-23,51.9,40.4,28.0,50.7,30.1,16.4,100,67,43,30.04,29.88,0,0,0,0.00
2013-11-24,28.0,23.9,20.9,21.0,9.9,2.0,80,56,34,30.34,29.97,0,0,0,0.00
2013-11-25,32.9,26.0,16.4,20.9,16.3,11.0,88,67,49,30.47,30.33,0,0,0,0.00
2013-11-26,44.7,35.0,31.5,44.6,27.1,19.2,100,74,54,30.36,29.88,0,0,0,0.49
2013-11-27,61.2,47.2,33.4,61.2,46.8,25.4,100,99,74,29.87,29.30,0,0,0,4.09
2013-11-28,33.3,28.6,22.6,26.3,19.6,15.6,88,69,53,30.49,29.68,0,0,0,0.00
2013-11-29,35.4,28.1,20.9,25.2,22.7,18.8,92,80,62,30.76,30.48,0,0,0,0.00
2013-11-30,32.6,25.8,18.1,28.8,20.3,14.2,93,80,57,30.79,30.41,0,0,0,0.00
2013-12-1,49.4,38.1,31.9,40.8,34.4,28.7,95,87,70,30.41,30.03,0,0,0,0.00
2013-12-2,45.7,35.4,29.1,39.6,33.6,28.6,100,94,75,30.04,29.91,0,0,0,0.00
2013-12-3,49.2,35.2,26.9,41.5,32.8,26.8,100,92,67,30.03,29.89,0,0,0,0.00
2013-12-4,51.4,38.5,29.7,40.9,35.4,29.3,100,90,66,30.20,30.02,0,0,0,0.00
2013-12-5,54.1,49.1,39.9,54.1,48.9,38.5,100,99,95,30.19,29.97,0,0,0,0.05
2013-12-6,53.4,44.3,35.2,53.3,44.1,35.1,100,99,91,30.18,29.90,0,0,0,0.70
2013-12-7,38.2,33.1,27.1,35.1,31.4,24.4,100,94,77,30.54,30.10,0,0,0,0.07
2013-12-8,30.6,27.6,21.5,26.8,23.4,20.0,94,84,74,30.62,30.43,0,0,0,0.00
2013-12-9,36.8,32.8,28.2,36.8,32.6,26.7,100,99,92,30.43,29.95,0,0,0,0.09
2013-12-10,33.9,30.4,23.9,33.8,29.9,22.2,100,98,92,30.10,29.84,0,0,0,0.00
2013-12-11,32.9,25.0,17.8,24.4,20.9,17.0,97,85,66,30.31,30.10,0,0,0,0.02
2013-12-12,73.4,19.9,0.6,19.6,13.0,-7.7,92,75,34,30.34,27.36,10,0,159,13.86
2013-12-13,32.3,24.8,18.7,21.5,16.6,10.9,90,71,59,30.36,30.09,0,0,159,0.00
2013-12-14,24.6,20.2,16.1,23.9,17.9,14.5,97,91,77,30.54,29.89,0,0,0,0.00
2013-12-15,36.0,30.4,23.0,33.9,28.8,21.6,100,94,76,29.89,29.49,0,0,0,0.00
2013-12-16,29.2,22.2,8.5,24.9,15.3,6.9,95,76,56,30.24,29.81,0,0,0,0.00
2013-12-17,23.7,17.3,6.5,22.6,15.8,5.1,96,94,92,30.25,29.93,0,0,0,0.00
2013-12-18,34.4,25.5,18.9,25.6,21.5,17.3,94,85,67,30.16,29.92,0,0,0,0.00
2013-12-19,43.9,29.6,16.4,32.0,25.2,15.0,95,85,55,30.18,30.02,0,0,0,0.00
2013-12-20,47.2,36.4,29.7,37.6,33.0,28.5,96,88,68,30.13,29.99,0,0,0,0.00
2013-12-21,54.2,41.2,34.6,48.0,39.4,33.5,100,94,76,30.04,29.92,0,0,0,0.00
2013-12-22,60.9,54.0,41.9,60.1,53.6,41.9,100,99,92,30.01,29.82,0,0,0,0.00
2013-12-23,57.1,49.0,37.8,57.1,48.8,34.6,100,99,89,30.15,29.91,0,0,0,0.76
2013-12-24,37.8,32.2,23.6,35.0,26.9,13.3,94,81,62,30.33,30.10,0,0,0,0.00
2013-12-25,25.7,20.9,15.7,18.4,13.0,8.1,87,71,57,30.54,30.32,0,0,0,0.01
2013-12-26,32.7,27.1,20.8,28.7,24.4,17.6,94,90,76,30.46,30.15,0,0,0,0.01
2013-12-27,37.3,27.7,19.8,27.0,23.2,18.8,96,84,59,30.36,30.26,0,0,0,0.02
2013-12-28,48.9,33.4,22.6,34.5,27.8,21.5,97,82,51,30.29,30.07,0,0,0,0.00
2013-12-29,42.1,36.7,30.9,42.1,35.7,29.2,100,96,90,30.09,29.43,0,0,0,1.39
2013-12-30,40.4,32.5,18.1,38.5,28.0,13.6,100,84,63,30.21,29.67,0,0,0,0.00
2013-12-31,29.2,22.6,16.4,24.9,16.2,11.8,89,77,60,30.27,30.06,0,0,0,0.00
2014-1-1,29.7,24.7,16.9,22.5,17.1,12.0,88,73,61,30.42,30.26,0,0,0,0.00
2014-1-2,27.4,21.5,11.7,23.3,19.2,10.1,94,91,79,30.30,29.70,0,0,0,0.00